ARIANE 5 DEB (SPELTRA)

基本信息
目录编号:
27950
目录名称:
ARIANE 5 DEB (SPELTRA)
国际标识:
2003-043D
轨道中心:
EARTH
物体状态:
在轨
发射日期:
2003-09-27 UTC
轨道信息
数据来源: 国际轨道数据
星历时间: 2026-07-13T23:47:51+0800
半长轴: 24600.475km
偏心率: 0.7157253
轨道倾角: 7.627°
近地点辐角: 130.797°
升交点赤经: 321.511°
平近点角: 271.142°
近地点: 615.155km
远地点: 35829.521km
周期: 639.993分钟
每日圈数: 2.250026
详细信息
发射场:
FRGUI
轨道高度:
LEO
数据来源:
AOE Integration Group
参考系:
TEME
时间系统:
UTC
历元类型:
SGP4
2D轨道图
3D轨道图
轨道高度分析图
轨道倾角分析图
轨道综合分析图
查看轨道综合分析图